Total_Precipitation_Accumulation
0.00 0.00 0.00 0.00 0.00 0.00 0.00 0.00 0.00 0.00 0.00 0.00 0.00 0.00 0.00 0.00 0.00 0.00 0.00 0.00 0.00 0.00 0.00 0.00 0.01 0.02 0.04 0.06 0.08 0.09 0.10 0.10 0.10 0.10 0.10 0.11 0.11 0.12 0.13 0.14 0.14 0.15 0.15
0.00 0.00 0.00 0.00 0.00 0.00 0.00 0.00 0.00 0.00 0.00 0.00 0.00 0.00 0.00 0.00 0.00 0.00 0.00 0.00 0.00 0.00 0.00 0.00 0.01 0.02 0.04 0.05 0.07 0.08 0.09 0.09 0.09 0.10 0.11 0.12 0.12 0.13 0.14 0.15 0.16 0.16 0.17
0.00 0.00 0.00 0.00 0.00 0.00 0.00 0.00 0.00 0.00 0.00 0.00 0.00 0.00 0.00 0.00 0.00 0.00 0.00 0.00 0.00 0.00 0.00 0.00 0.01 0.01 0.02 0.02 0.04 0.06 0.07 0.09 0.10 0.11 0.12 0.14 0.15 0.15 0.16 0.17 0.18 0.20 0.20
0.00 0.00 0.00 0.00 0.00 0.00 0.00 0.00 0.00 0.00 0.00 0.00 0.00 0.00 0.00 0.00 0.00 0.00 0.00 0.00 0.00 0.00 0.00 0.00 0.00 0.01 0.01 0.01 0.01 0.03 0.05 0.07 0.09 0.11 0.13 0.15 0.17 0.18 0.20 0.22 0.24 0.25 0.26
0.01 0.01 0.00 0.00 0.00 0.00 0.00 0.00 0.00 0.00 0.00 0.00 0.00 0.00 0.00 0.00 0.00 0.00 0.00 0.00 0.00 0.00 0.00 0.00 0.00 0.00 0.00 0.00 0.01 0.02 0.03 0.05 0.08 0.10 0.12 0.14 0.17 0.20 0.24 0.28 0.31 0.33 0.35
0.04 0.03 0.02 0.01 0.00 0.00 0.00 0.00 0.00 0.00 0.00 0.00 0.00 0.00 0.00 0.00 0.00 0.00 0.00 0.00 0.00 0.00 0.00 0.00 0.00 0.00 0.00 0.01 0.01 0.02 0.03 0.04 0.06 0.08 0.10 0.12 0.15 0.19 0.23 0.28 0.33 0.37 0.42
0.11 0.07 0.04 0.04 0.02 0.01 0.01 0.01 0.01 0.01 0.00 0.00 0.01 0.01 0.00 0.00 0.00 0.00 0.00 0.00 0.00 0.00 0.00 0.00 0.00 0.00 0.01 0.01 0.02 0.02 0.02 0.03 0.05 0.07 0.09 0.12 0.15 0.20 0.24 0.29 0.33 0.37 0.41
0.17 0.13 0.09 0.07 0.06 0.04 0.04 0.03 0.02 0.02 0.01 0.01 0.02 0.02 0.01 0.00 0.00 0.00 0.00 0.00 0.00 0.00 0.00 0.00 0.00 0.01 0.01 0.01 0.01 0.01 0.01 0.01 0.02 0.06 0.11 0.15 0.19 0.23 0.27 0.32 0.36 0.40 0.45
0.26 0.21 0.18 0.17 0.15 0.12 0.09 0.08 0.07 0.05 0.04 0.04 0.03 0.05 0.05 0.03 0.02 0.01 0.00 0.00 0.00 0.00 0.00 0.00 0.00 0.00 0.00 0.00 0.01 0.01 0.01 0.02 0.03 0.05 0.10 0.16 0.21 0.26 0.31 0.36 0.41 0.47 0.51
0.27 0.27 0.26 0.24 0.21 0.19 0.17 0.18 0.18 0.16 0.13 0.09 0.08 0.07 0.08 0.08 0.08 0.05 0.02 0.01 0.01 0.01 0.00 0.00 0.00 0.00 0.00 0.01 0.01 0.01 0.02 0.04 0.06 0.07 0.10 0.17 0.25 0.34 0.42 0.48 0.55 0.60 0.65
0.22 0.25 0.27 0.26 0.24 0.24 0.26 0.28 0.26 0.26 0.24 0.20 0.17 0.17 0.15 0.12 0.11 0.11 0.07 0.03 0.03 0.02 0.02 0.02 0.02 0.01 0.01 0.01 0.01 0.02 0.04 0.06 0.09 0.12 0.17 0.26 0.37 0.47 0.58 0.67 0.75 0.80 0.83
0.16 0.18 0.22 0.24 0.27 0.29 0.31 0.33 0.33 0.34 0.33 0.32 0.27 0.24 0.24 0.22 0.19 0.20 0.18 0.12 0.10 0.08 0.08 0.07 0.07 0.06 0.05 0.05 0.04 0.04 0.05 0.05 0.08 0.11 0.18 0.30 0.40 0.49 0.57 0.67 0.76 0.84 0.90
0.13 0.15 0.19 0.23 0.27 0.31 0.36 0.38 0.37 0.36 0.37 0.36 0.34 0.30 0.28 0.26 0.25 0.28 0.32 0.28 0.24 0.19 0.17 0.16 0.13 0.11 0.10 0.09 0.07 0.06 0.05 0.04 0.06 0.08 0.12 0.23 0.29 0.30 0.35 0.43 0.56 0.69 0.82
0.15 0.18 0.21 0.23 0.26 0.29 0.31 0.33 0.34 0.34 0.34 0.34 0.33 0.30 0.28 0.25 0.24 0.26 0.32 0.37 0.37 0.30 0.25 0.22 0.20 0.18 0.16 0.14 0.11 0.09 0.06 0.05 0.05 0.06 0.09 0.13 0.16 0.17 0.20 0.27 0.37 0.48 0.60
0.12 0.14 0.16 0.19 0.21 0.22 0.23 0.26 0.27 0.26 0.27 0.27 0.27 0.26 0.25 0.22 0.21 0.22 0.25 0.34 0.44 0.41 0.32 0.25 0.24 0.22 0.20 0.17 0.14 0.12 0.08 0.07 0.07 0.09 0.11 0.12 0.13 0.15 0.19 0.23 0.30 0.39 0.49
0.09 0.10 0.12 0.14 0.16 0.16 0.17 0.17 0.18 0.17 0.18 0.19 0.19 0.19 0.19 0.19 0.19 0.21 0.24 0.30 0.38 0.43 0.38 0.27 0.23 0.22 0.21 0.17 0.13 0.12 0.10 0.12 0.13 0.13 0.13 0.15 0.18 0.23 0.26 0.28 0.31 0.36 0.46
0.06 0.07 0.09 0.11 0.11 0.11 0.10 0.11 0.12 0.12 0.14 0.14 0.15 0.16 0.17 0.17 0.19 0.20 0.22 0.25 0.27 0.30 0.30 0.22 0.17 0.15 0.15 0.14 0.12 0.11 0.09 0.08 0.07 0.10 0.13 0.15 0.18 0.23 0.28 0.32 0.34 0.37 0.44
0.05 0.06 0.06 0.06 0.06 0.06 0.07 0.08 0.09 0.10 0.12 0.14 0.15 0.16 0.18 0.20 0.23 0.24 0.25 0.25 0.24 0.24 0.25 0.22 0.15 0.11 0.09 0.09 0.07 0.06 0.06 0.07 0.06 0.07 0.11 0.14 0.17 0.22 0.27 0.30 0.33 0.36 0.40
0.05 0.05 0.04 0.04 0.05 0.05 0.06 0.07 0.09 0.10 0.13 0.15 0.17 0.20 0.22 0.24 0.25 0.25 0.23 0.21 0.19 0.17 0.18 0.20 0.12 0.07 0.05 0.04 0.05 0.04 0.04 0.05 0.06 0.07 0.09 0.11 0.16 0.21 0.26 0.29 0.30 0.31 0.32
0.06 0.06 0.05 0.05 0.06 0.08 0.09 0.11 0.13 0.16 0.18 0.20 0.23 0.25 0.27 0.26 0.24 0.21 0.17 0.15 0.14 0.13 0.12 0.15 0.15 0.11 0.07 0.04 0.06 0.06 0.05 0.05 0.05 0.05 0.06 0.07 0.09 0.12 0.14 0.17 0.20 0.22 0.24
0.06 0.07 0.08 0.09 0.11 0.12 0.16 0.19 0.22 0.26 0.29 0.31 0.30 0.28 0.24 0.21 0.17 0.14 0.13 0.12 0.12 0.14 0.19 0.24 0.21 0.15 0.09 0.08 0.07 0.07 0.09 0.07 0.05 0.04 0.04 0.03 0.04 0.05 0.06 0.09 0.15 0.20 0.26
0.10 0.12 0.15 0.19 0.24 0.29 0.35 0.35 0.31 0.31 0.30 0.27 0.23 0.20 0.17 0.14 0.11 0.10 0.10 0.11 0.16 0.24 0.31 0.33 0.26 0.18 0.08 0.05 0.07 0.12 0.18 0.21 0.15 0.04 0.06 0.04 0.03 0.04 0.07 0.12 0.19 0.26 0.33
0.22 0.26 0.30 0.35 0.38 0.40 0.37 0.29 0.24 0.21 0.21 0.19 0.15 0.11 0.08 0.06 0.05 0.04 0.04 0.10 0.15 0.20 0.23 0.22 0.18 0.10 0.10 0.12 0.23 0.32 0.29 0.27 0.17 0.04 0.06 0.07 0.04 0.06 0.08 0.14 0.25 0.29 0.36
0.37 0.40 0.41 0.43 0.42 0.40 0.34 0.25 0.19 0.15 0.12 0.10 0.08 0.06 0.04 0.04 0.04 0.07 0.13 0.17 0.12 0.07 0.06 0.06 0.09 0.13 0.16 0.16 0.23 0.33 0.29 0.22 0.10 0.04 0.07 0.15 0.10 0.10 0.09 0.13 0.23 0.25 0.29
0.46 0.45 0.42 0.38 0.31 0.25 0.20 0.14 0.10 0.07 0.05 0.04 0.03 0.03 0.05 0.04 0.06 0.18 0.26 0.22 0.10 0.03 0.02 0.07 0.12 0.12 0.10 0.09 0.11 0.27 0.38 0.39 0.25 0.07 0.06 0.12 0.10 0.11 0.15 0.17 0.22 0.26 0.27
0.35 0.31 0.26 0.22 0.17 0.13 0.09 0.05 0.04 0.03 0.02 0.02 0.02 0.02 0.03 0.05 0.13 0.26 0.24 0.19 0.10 0.06 0.09 0.06 0.03 0.01 0.01 0.02 0.08 0.23 0.57 0.84 0.58 0.29 0.09 0.22 0.24 0.30 0.42 0.22 0.21 0.24 0.25